Time,TemperatureF,DewpointF,PressureIn,WindDirection,WindDirectionDegrees,WindSpeedMPH,WindSpeedGustMPH,Humidity,HourlyPrecipIn,Conditions,Clouds,dailyrainin,SoftwareType,DateUTC
2013-11-09 00:21:00,49.0,16.0,30.01,WSW,240,2.0,4.0,27,0.00,,,0.00,,2013-11-09 08:21:00,
2013-11-09 00:42:00,50.0,17.0,30.01,WSW,240,0.0,1.0,27,0.00,,,0.00,,2013-11-09 08:42:00,
2013-11-09 00:52:00,50.0,17.0,30.01,WSW,240,0.0,0.0,27,0.00,,,0.00,,2013-11-09 08:52:00,
2013-11-09 01:21:00,49.0,17.0,30.02,WSW,240,0.0,0.0,28,0.00,,,0.00,,2013-11-09 09:21:00,
2013-11-09 01:53:00,49.0,17.0,30.02,WSW,240,0.0,0.0,28,0.00,,,0.00,,2013-11-09 09:53:00,
2013-11-09 02:23:00,47.0,16.0,30.02,WSW,240,0.0,1.0,28,0.00,,,0.00,,2013-11-09 10:23:00,
2013-11-09 02:52:00,46.0,15.0,30.02,SW,220,3.0,4.0,28,0.00,,,0.00,,2013-11-09 10:52:00,
2013-11-09 03:22:00,48.0,17.0,30.03,SW,220,0.0,0.0,29,0.00,,,0.00,,2013-11-09 11:22:00,
2013-11-09 03:42:00,47.0,16.0,30.03,SW,220,0.0,3.0,29,0.00,,,0.00,,2013-11-09 11:42:00,
2013-11-09 03:52:00,46.0,16.0,30.03,SW,220,0.0,0.0,29,0.00,,,0.00,,2013-11-09 11:52:00,
2013-11-09 04:21:00,44.0,16.0,30.03,WNW,293,0.0,0.0,32,0.00,,,0.00,,2013-11-09 12:21:00,
2013-11-09 04:42:00,45.0,17.0,30.03,WNW,293,0.0,0.0,32,0.00,,,0.00,,2013-11-09 12:42:00,
2013-11-09 04:52:00,43.0,16.0,30.04,WNW,293,0.0,0.0,33,0.00,,,0.00,,2013-11-09 12:52:00,
2013-11-09 05:11:00,44.0,17.0,30.04,WNW,293,0.0,0.0,33,0.00,,,0.00,,2013-11-09 13:11:00,
2013-11-09 05:21:00,44.0,17.0,30.05,WNW,293,0.0,0.0,33,0.00,,,0.00,,2013-11-09 13:21:00,
2013-11-09 05:41:00,44.0,17.0,30.05,WNW,293,0.0,0.0,34,0.00,,,0.00,,2013-11-09 13:41:00,
2013-11-09 05:52:00,44.0,17.0,30.06,WNW,292,0.0,0.0,33,0.00,,,0.00,,2013-11-09 13:52:00,
2013-11-09 06:21:00,42.0,16.0,30.06,WNW,292,0.0,0.0,34,0.00,,,0.00,,2013-11-09 14:21:00,
2013-11-09 06:42:00,45.0,15.0,30.07,WNW,293,0.0,0.0,30,0.00,,,0.00,,2013-11-09 14:42:00,
2013-11-09 06:52:00,44.0,17.0,30.08,WNW,293,0.0,0.0,33,0.00,,,0.00,,2013-11-09 14:52:00,
2013-11-09 07:11:00,44.0,16.0,30.08,WNW,292,0.0,0.0,32,0.00,,,0.00,,2013-11-09 15:11:00,
2013-11-09 07:21:00,47.0,18.0,30.09,WNW,293,0.0,0.0,31,0.00,,,0.00,,2013-11-09 15:21:00,
2013-11-09 07:53:00,50.0,18.0,30.10,West,281,1.0,4.0,28,0.00,,,0.00,,2013-11-09 15:53:00,
2013-11-09 08:23:00,52.0,19.0,30.11,SW,236,3.0,6.0,27,0.00,,,0.00,,2013-11-09 16:23:00,
2013-11-09 08:43:00,54.0,20.0,30.11,WSW,250,1.0,5.0,26,0.00,,,0.00,,2013-11-09 16:43:00,
2013-11-09 08:52:00,56.0,21.0,30.11,WSW,242,2.0,7.0,25,0.00,,,0.00,,2013-11-09 16:52:00,
2013-11-09 09:23:00,58.0,21.0,30.11,WSW,240,4.0,6.0,24,0.00,,,0.00,,2013-11-09 17:23:00,
2013-11-09 09:52:00,63.0,22.0,30.11,SW,217,1.0,4.0,21,0.00,,,0.00,,2013-11-09 17:52:00,
2013-11-09 10:23:00,67.0,23.0,30.11,ESE,119,0.0,2.0,19,0.00,,,0.00,,2013-11-09 18:23:00,
2013-11-09 10:42:00,69.0,24.0,30.11,ENE,72,3.0,5.0,18,0.00,,,0.00,,2013-11-09 18:42:00,
2013-11-09 10:52:00,69.0,24.0,30.11,East,85,2.0,4.0,18,0.00,,,0.00,,2013-11-09 18:52:00,
2013-11-09 11:22:00,70.0,23.0,30.10,North,5,1.0,9.0,17,0.00,,,0.00,,2013-11-09 19:22:00,
2013-11-09 11:42:00,70.0,23.0,30.09,North,5,4.0,9.0,17,0.00,,,0.00,,2013-11-09 19:42:00,
2013-11-09 11:52:00,71.0,23.0,30.09,North,355,2.0,10.0,16,0.00,,,0.00,,2013-11-09 19:52:00,
2013-11-09 17:12:00,67.0,21.0,30.03,ENE,71,0.0,0.0,17,0.00,,,0.00,,2013-11-10 01:12:00,
2013-11-09 17:52:00,61.0,18.0,30.05,SSW,200,2.0,3.0,19,0.00,,,0.00,,2013-11-10 01:52:00,
2013-11-09 18:11:00,60.0,19.0,30.05,SSW,200,0.0,2.0,20,0.00,,,0.00,,2013-11-10 02:11:00,
2013-11-09 18:21:00,59.0,18.0,30.06,SSW,200,1.0,2.0,20,0.00,,,0.00,,2013-11-10 02:21:00,
2013-11-09 18:42:00,59.0,18.0,30.06,SSW,200,3.0,3.0,20,0.00,,,0.00,,2013-11-10 02:42:00,
2013-11-09 18:52:00,58.0,18.0,30.06,SSW,200,0.0,1.0,21,0.00,,,0.00,,2013-11-10 02:52:00,
2013-11-09 19:21:00,57.0,19.0,30.07,SSW,200,0.0,0.0,22,0.00,,,0.00,,2013-11-10 03:21:00,
2013-11-09 19:44:00,55.0,17.0,30.08,SSW,200,0.0,0.0,22,0.00,,,0.00,,2013-11-10 03:44:00,
2013-11-09 19:54:00,57.0,17.0,30.08,SSW,202,1.0,3.0,21,0.00,,,0.00,,2013-11-10 03:54:00,
2013-11-09 20:02:00,-999.0,-99.9,30.09,SSW,202,0.0,2.0,-999,-99.99,,,-99.99,,2013-11-10 04:02:00,
2013-11-09 20:23:00,55.0,17.0,30.09,SSW,202,1.0,2.0,22,0.00,,,0.00,,2013-11-10 04:23:00,
2013-11-09 20:52:00,52.0,16.0,30.10,SW,233,0.0,3.0,24,0.00,,,0.00,,2013-11-10 04:52:00,
2013-11-09 21:22:00,54.0,18.0,30.10,SW,232,1.0,2.0,24,0.00,,,0.00,,2013-11-10 05:22:00,
2013-11-09 21:54:00,55.0,18.0,30.11,SSW,198,3.0,6.0,23,0.00,,,0.00,,2013-11-10 05:54:00,
2013-11-09 22:52:00,50.0,16.0,30.12,North,360,0.0,3.0,25,0.00,,,0.00,,2013-11-10 06:52:00,
2013-11-09 23:12:00,49.0,16.0,30.12,North,360,0.0,0.0,26,0.00,,,0.00,,2013-11-10 07:12:00,
2013-11-09 23:22:00,49.0,16.0,30.12,North,360,0.0,0.0,26,0.00,,,0.00,,2013-11-10 07:22:00,
2013-11-09 23:42:00,49.0,16.0,30.12,North,355,0.0,1.0,26,0.00,,,0.00,,2013-11-10 07:42:00,
2013-11-09 23:52:00,47.0,15.0,30.12,North,355,0.0,0.0,27,0.00,,,0.00,,2013-11-10 07:52:00,